DW1035 Weather Reports


Display with metric or nautical units.
time (UTC)temp
F
wind
direction
speed
MPH
gust
MPH
rain 1hr
in
rain 24hr
in
rain mn
in
humidity
%
barometer
mb
20260505191009 68 0 0.0 0.0 0.00 0.00 0.00 61 1002.4
20260505190509 68 0 0.0 0.0 0.00 0.00 0.00 61 1002.5
20260505184509 67 0 0.0 0.0 0.00 0.00 0.00 63 1002.9
20260505184009 67 0 0.0 0.0 0.00 0.00 0.00 63 1003.0
20260505183509 67 0 0.0 0.0 0.00 0.00 0.00 61 1002.8
20260505183009 66 0 0.0 0.0 0.00 0.00 0.00 62 1002.8
20260505181009 66 0 0.0 0.0 0.00 0.00 0.00 63 1003.0
20260505180509 66 0 0.0 0.0 0.00 0.00 0.00 63 1003.0
20260505180009 66 0 0.0 0.0 0.00 0.00 0.00 63 1003.0
20260505174009 67 0 0.0 0.0 0.00 0.00 0.00 61 1003.4
20260505173008 67 0 0.0 0.0 0.00 0.00 0.00 62 1003.4
20260505171509 65 0 0.0 0.0 0.00 0.00 0.00 64 1003.6
20260505171008 66 0 0.0 0.0 0.00 0.00 0.00 64 1003.6
20260505170508 68 0 0.0 0.0 0.00 0.00 0.00 61 1003.7
20260505170009 68 0 0.0 0.0 0.00 0.00 0.00 60 1003.9
20260505164508 68 0 0.0 0.0 0.00 0.00 0.00 60 1004.0
20260505163508 69 0 0.0 0.0 0.00 0.00 0.00 58 1004.1
20260505163009 69 0 0.0 0.0 0.00 0.00 0.00 59 1004.3
20260505161508 71 0 0.0 0.0 0.00 0.00 0.00 56 1004.4
20260505160508 73 0 0.0 0.0 0.00 0.00 0.00 55 1004.6
20260505153009 71 0 0.0 0.0 0.00 0.00 0.00 56 1005.1
20260505151508 70 0 0.0 0.0 0.00 0.00 0.00 57 1005.1
20260505151008 69 0 0.0 0.0 0.00 0.00 0.00 57 1005.1
20260505150508 67 0 0.0 0.0 0.00 0.00 0.00 61 1005.2
20260505124507 58 0 0.0 0.0 0.00 0.00 0.00 74 1005.6
20260505124007 58 0 0.0 0.0 0.00 0.00 0.00 73 1005.6
20260505123508 58 0 0.0 0.0 0.00 0.00 0.00 73 1005.5
20260505123007 57 0 0.0 0.0 0.00 0.00 0.00 73 1005.3
20260505121507 55 0 0.0 0.0 0.00 0.00 0.00 76 1005.4
20260505121007 55 0 0.0 0.0 0.00 0.00 0.00 77 1005.4
20260505120507 55 0 0.0 0.0 0.00 0.00 0.00 78 1005.5
20260505120007 55 0 0.0 0.0 0.00 0.00 0.00 78 1005.6
20260505114507 54 0 0.0 0.0 0.00 0.00 0.00 78 1005.6
20260505114007 53 0 0.0 0.0 0.00 0.00 0.00 79 1005.7
20260505113507 53 0 0.0 0.0 0.00 0.00 0.00 80 1005.7
20260505113007 53 0 0.0 0.0 0.00 0.00 0.00 80 1005.8
20260505111507 52 0 0.0 0.0 0.00 0.00 0.00 81 1005.7
20260505110507 51 0 0.0 0.0 0.00 0.00 0.00 83 1005.6
20260505101007 49 0 0.0 0.0 0.00 0.00 0.00 87 1005.7
20260505100506 49 0 0.0 0.0 0.00 0.00 0.00 87 1005.7
20260505100006 49 0 0.0 0.0 0.00 0.00 0.00 87 1005.6
20260505094507 49 0 0.0 0.0 0.00 0.00 0.00 86 1005.7
20260505094007 49 0 0.0 0.0 0.00 0.00 0.00 85 1005.7
20260505093507 49 0 0.0 0.0 0.00 0.00 0.00 85 1005.8
20260505093007 49 0 0.0 0.0 0.00 0.00 0.00 84 1005.7
20260505091006 50 0 0.0 0.0 0.00 0.00 0.00 82 1005.7
20260505090007 50 0 0.0 0.0 0.00 0.00 0.00 81 1005.8
20260505084006 51 0 0.0 0.0 0.00 0.00 0.00 80 1005.9
20260505083006 51 0 0.0 0.0 0.00 0.00 0.00 78 1005.9
20260505081007 53 0 0.0 0.0 0.00 0.00 0.00 72 1006.0
20260505080007 54 0 0.0 0.0 0.00 0.00 0.00 70 1006.0
20260505074506 55 0 0.0 0.0 0.00 0.00 0.00 68 1006.0
20260505074006 55 0 0.0 0.0 0.00 0.00 0.00 67 1006.0
20260505073006 56 0 0.0 0.0 0.00 0.00 0.00 65 1006.1
20260505071006 57 0 0.0 0.0 0.00 0.00 0.00 61 1005.9
20260505070506 57 0 0.0 0.0 0.00 0.00 0.00 61 1005.9
20260505070006 57 0 0.0 0.0 0.00 0.00 0.00 61 1005.9
20260505064506 57 0 0.0 0.0 0.00 0.00 0.00 60 1005.8
20260505064005 57 0 0.0 0.0 0.00 0.00 0.00 60 1005.8
20260505063506 57 0 0.0 0.0 0.00 0.00 0.00 60 1005.8
20260505063006 58 0 0.0 0.0 0.00 0.00 0.00 60 1005.8
20260505061506 58 0 0.0 0.0 0.00 0.00 0.00 59 1005.7
20260505061006 58 0 0.0 0.0 0.00 0.00 0.00 59 1005.8
20260505060506 58 0 0.0 0.0 0.00 0.00 0.00 58 1005.8
20260505054505 58 0 0.0 0.0 0.00 0.00 0.00 57 1005.9
20260505054005 59 0 0.0 0.0 0.00 0.00 0.00 57 1005.8
20260505053505 58 0 0.0 0.0 0.00 0.00 0.00 57 1005.8
20260505051506 59 0 0.0 0.0 0.00 0.00 0.00 56 1005.9
20260505051006 59 0 0.0 0.0 0.00 0.00 0.00 56 1005.9
20260505050506 59 0 0.0 0.0 0.00 0.00 0.00 55 1005.9
20260505041505 61 0 0.0 0.0 0.00 0.00 0.00 53 1005.7
20260505041005 61 0 0.0 0.0 0.00 0.00 0.00 52 1005.6
20260505040505 61 0 0.0 0.0 0.00 0.00 0.00 52 1005.6
20260505040005 61 0 0.0 0.0 0.00 0.00 0.00 52 1005.5
20260505034505 62 0 0.0 0.0 0.00 0.00 0.00 52 1005.5
20260505034005 62 0 0.0 0.0 0.00 0.00 0.00 52 1005.4
20260505033505 62 0 0.0 0.0 0.00 0.00 0.00 51 1005.4
20260505033005 62 0 0.0 0.0 0.00 0.00 0.00 52 1005.5
20260505030505 62 0 0.0 0.0 0.00 0.00 0.00 51 1005.4
20260505030005 62 0 0.0 0.0 0.00 0.00 0.00 51 1005.4
20260505024505 62 0 0.0 0.0 0.00 0.00 0.00 51 1005.3
20260505024005 62 0 0.0 0.0 0.00 0.00 0.00 51 1005.3
20260505023005 61 0 0.0 0.0 0.00 0.00 0.00 53 1005.3
20260505021505 58 0 0.0 0.0 0.00 0.00 0.00 56 1005.2
20260505021005 57 0 0.0 0.0 0.00 0.00 0.00 58 1005.1
20260505020004 55 0 0.0 0.0 0.00 0.00 0.00 67 1005.0
20260505014505 55 0 0.0 0.0 0.00 0.00 0.00 69 1004.6
20260505014004 55 0 0.0 0.0 0.00 0.00 0.00 69 1004.6
20260505013504 56 0 0.0 0.0 0.00 0.00 0.00 68 1004.6
20260505013006 56 0 0.0 0.0 0.00 0.00 0.00 66 1004.6
20260505011504 59 0 0.0 0.0 0.00 0.00 0.00 60 1004.4
20260505011004 59 0 0.0 0.0 0.00 0.00 0.00 57 1004.3
20260505010504 60 0 0.0 0.0 0.00 0.00 0.00 53 1004.2
20260505010004 61 0 0.0 0.0 0.00 0.00 0.00 50 1004.1
20260505004504 62 0 0.0 0.0 0.00 0.00 0.00 48 1003.9
20260505004004 62 0 0.0 0.0 0.00 0.00 0.00 47 1003.8
20260505003504 62 0 0.0 0.0 0.00 0.00 0.00 47 1003.8
20260505003004 63 0 0.0 0.0 0.00 0.00 0.00 46 1003.7
20260505001504 64 0 0.0 0.0 0.00 0.00 0.00 45 1003.4
20260505001004 65 0 0.0 0.0 0.00 0.00 0.00 44 1003.2
20260505000504 65 0 0.0 0.0 0.00 0.00 0.00 43 1003.1
20260505000004 66 0 0.0 0.0 0.00 0.00 0.00 42 1003.1
20260504234504 67 0 0.0 0.0 0.00 0.00 0.00 40 1002.9
20260504234004 67 0 0.0 0.0 0.00 0.00 0.00 40 1002.9
20260504233504 68 0 0.0 0.0 0.00 0.00 0.00 39 1002.9
20260504233004 68 0 0.0 0.0 0.00 0.00 0.00 39 1002.8
20260504231504 69 0 0.0 0.0 0.00 0.00 0.00 37 1002.5
20260504231004 70 0 0.0 0.0 0.00 0.00 0.00 37 1002.4
20260504230504 70 0 0.0 0.0 0.00 0.00 0.00 37 1002.4
20260504230004 70 0 0.0 0.0 0.00 0.00 0.00 36 1002.4
20260504224504 70 0 0.0 0.0 0.00 0.00 0.00 36 1002.2
20260504224004 70 0 0.0 0.0 0.00 0.00 0.00 36 1002.2
20260504221504 71 0 0.0 0.0 0.00 0.00 0.00 36 1002.0
20260504221004 71 0 0.0 0.0 0.00 0.00 0.00 36 1002.0
20260504214510 71 0 0.0 0.0 0.00 0.00 0.00 36 1002.1
20260504214010 71 0 0.0 0.0 0.00 0.00 0.00 37 1002.1
20260504213510 71 0 0.0 0.0 0.00 0.00 0.00 37 1002.1
20260504213010 71 0 0.0 0.0 0.00 0.00 0.00 37 1002.0
20260504211510 72 0 0.0 0.0 0.00 0.00 0.00 37 1002.1
20260504211010 71 0 0.0 0.0 0.00 0.00 0.00 36 1002.0
20260504210510 71 0 0.0 0.0 0.00 0.00 0.00 36 1002.0
20260504210010 71 0 0.0 0.0 0.00 0.00 0.00 36 1002.0
20260504203509 72 0 0.0 0.0 0.00 0.00 0.00 35 1002.0
20260504203009 73 0 0.0 0.0 0.00 0.00 0.00 35 1002.1
20260504201509 73 0 0.0 0.0 0.00 0.00 0.00 35 1001.8
20260504201009 73 0 0.0 0.0 0.00 0.00 0.00 34 1001.9
20260504200509 73 0 0.0 0.0 0.00 0.00 0.00 34 1001.9
20260504194509 72 0 0.0 0.0 0.00 0.00 0.00 35 1002.0
20260504194010 72 0 0.0 0.0 0.00 0.00 0.00 35 1002.0
20260504193509 71 0 0.0 0.0 0.00 0.00 0.00 35 1002.0
20260504193009 71 0 0.0 0.0 0.00 0.00 0.00 35 1002.1